{"data":{"norad_id":47390,"intl_designator":"2021-005AT","name":"STARLINK-2111","alt_names":[],"object_type":"PAYLOAD","status":"ACTIVE","operator":null,"country":"US","launch_date":"2021-01-20","launch_site_code":"AFETR","launch_vehicle":null,"mission":null,"orbit_class":"UNKNOWN","rcs_meters":null,"size_class":null,"mass_kg":null,"dimensions":null,"purposes":["comms"],"wikipedia_slug":null,"has_3d_model":false,"image_url":null,"decayed_at":null,"tle_current":{"epoch":"2026-05-24T23:14:55.064832Z","epoch_age_seconds":78075,"freshness":"FRESH","line1":"1 47390U 21005AT  26144.96869288  .00002678  00000+0  97998-4 0  9992","line2":"2 47390  53.1610  71.5605 0001157  98.9958 261.1174 15.31709339294656","mean_motion":15.31709339,"eccentricity":0.0001157,"inclination_deg":53.161,"raan_deg":71.5605,"arg_perigee_deg":98.9958,"mean_anomaly_deg":261.1174,"bstar":9.7998e-5,"rev_number":29465,"period_min":94.012614752361,"perigee_km":469.91974444667,"apogee_km":471.50456814144,"semimajor_km":6848.8491562941,"source":"CELESTRAK","updated_at":"2026-05-25T13:38:16.553114Z"}}}